User: anonymous   Login
Location: *
(33.8649°S, 62.1526°E)
Time: 21:34:20
(UTC+00:00)
Language:

SPOT 1/Viking Rocket - Orbit

View from above orbital plane
View from above orbital plane
View from above satellite
View from above satellite

Ground track
Ground track

The orbit data is extracted from the following two-line orbital elements,

1 16615U 86019C   21112.18083566  .00000042  00000-0  31503-4 0  9999
2 16615  98.4340 175.7293 0011179 212.4436 158.2291 14.31838978840545
Epoch (UTC): 22 April 2021 04:20:24
Eccentricity: 0.0011179
inclination: 98.4340°
perigee height: 777 km
apogee height: 793 km
right ascension of ascending node: 175.7293°
argument of perigee: 212.4436°
revolutions per day: 14.31838978
mean anomaly at epoch: 158.2291°
orbit number at epoch: 84054

The dashed part of the orbit path shows where the satellite is in the earth's shadow,  

DLR